スペースウォッチ彗星

C/1997 P2 ( Spacewatch )

English version
Home page
Updated on December 25, 1997

---------------------------------------------------------------------

・ プロフィール

発見日 1997年8月12日
発見光度 18.6等
発見者 Spacewatch (Kitt Peak)

・ 軌道要素

   The following improved orbital elements by Kenji Muraoka, are 
  from  90 observations  1997 Aug. 12 to Sept. 30, perturbations 
  by 9 Planets, Moon and 5 minor planets were taken into account.
   The mean residual is +/- 0.63 arc seconds.

      Epoch  =  1997 Aug. 20.0  TT       JDT = 2450680.5
          T  =  1997 Aug. 31.12099       +/- 0.77531 (m.e.) TT
       Peri. =   24.49517                +/- 0.18312
       Node  =  302.91720                +/- 0.22980   (2000.0)
       Incl. =   14.58375                +/- 0.05987
          q  =    4.2633919              +/- 0.0011667 AU
          e  =    1.0284013              +/- 0.0000916
        1/a  =   -0.0066617              +/- 0.0000216 1/AU
  orig. 1/a  =   -0.0000311 
  fut.  1/a  =   -0.0023503 

・ 星図

・ 1997年 5月 2日〜1998年10月24日

・ 光度変化

        m1 = 10.0 + 5 logΔ + 10.0 log r

---------------------------------------------------------------------

軌道要素は村岡健治氏の計算によるものです。
星図は StellaNavigator Ver.2.0 for Windows (アストロアーツ 編著 / アスキー出版局刊) で作成したものです。
光度グラフはComet for Windowsで作成したものです。

---------------------------------------------------------------------

Copyright(C) Seiichi Yoshida (comet@aerith.net). All rights reserved.